GW4147 Weather Reports


time (UTC)temp
C
wind
direction
speed
KPH
gust
KPH
rain 1hr
cm
rain 24hr
cm
rain mn
cm
humidity
%
barometer
mb
20260509112506 18 241 3.2 4.8 0.00 0.00 0.00 95 1011.0
20260509112002 18 258 1.6 3.2 0.00 0.00 0.00 95 1010.7
20260509111500 18 66 1.6 1.6 0.00 0.00 0.00 95 1010.5
20260509110957 18 334 1.6 3.2 0.00 0.00 0.00 94 1010.4
20260509110453 18 18 0.0 4.8 0.00 0.00 0.00 94 1010.2
20260509105951 18 352 4.8 4.8 0.00 0.00 0.00 94 1010.3
20260509105449 18 5 3.2 4.8 0.00 0.00 0.00 94 1010.2
20260509104946 18 37 0.0 3.2 0.00 0.00 0.00 94 1010.4
20260509104443 18 333 0.0 3.2 0.00 0.00 0.00 94 1010.1
20260509103940 19 329 1.6 4.8 0.00 0.00 0.00 94 1010.2
20260509103438 19 1 1.6 4.8 0.00 0.00 0.00 94 1010.1
20260509102936 19 25 1.6 3.2 0.00 0.00 0.00 93 1010.0
20260509102433 19 342 1.6 3.2 0.00 0.00 0.00 93 1010.2
20260509101929 19 316 1.6 3.2 0.00 0.00 0.00 93 1010.1
20260509101425 19 116 1.6 4.8 0.00 0.00 0.00 93 1010.0
20260509100923 19 108 3.2 4.8 0.00 0.00 0.00 93 1009.7
20260509100420 19 96 3.2 8.0 0.00 0.00 0.00 92 1009.8
20260509095916 20 117 4.8 9.7 0.00 0.00 0.00 92 1009.4
20260509095414 20 92 4.8 9.7 0.00 0.00 0.00 92 1009.3
20260509094911 20 106 4.8 12.9 0.00 0.00 0.00 92 1009.1
20260509094407 20 64 6.4 9.7 0.00 0.00 0.00 91 1009.3
20260509093905 20 49 6.4 12.9 0.00 0.00 0.00 91 1009.4
20260509093402 20 67 4.8 8.0 0.00 0.00 0.00 91 1009.5
20260509092900 20 93 4.8 6.4 0.00 0.00 0.00 90 1009.2
20260509092357 20 56 8.0 14.5 0.00 0.00 0.00 90 1009.2
20260509091856 20 80 3.2 16.1 0.00 0.00 0.00 90 1009.2
20260509091352 20 88 9.7 12.9 0.00 0.00 0.00 90 1009.6
20260509090850 20 120 16.1 19.3 0.00 0.00 0.00 90 1009.5
20260509090347 20 71 8.0 14.5 0.00 0.00 0.00 90 1009.7
20260509085844 20 55 4.8 16.1 0.00 0.00 0.00 90 1009.5
20260509085341 20 63 8.0 12.9 0.00 0.00 0.00 90 1009.5
20260509084838 20 81 6.4 12.9 0.00 0.00 0.00 90 1009.4
20260509084335 20 100 8.0 9.7 0.00 0.00 0.00 90 1009.3
20260509083833 20 74 8.0 14.5 0.00 0.00 0.00 90 1009.2
20260509083329 20 58 6.4 11.3 0.00 0.00 0.00 89 1009.3
20260509082826 20 339 6.4 11.3 0.00 0.00 0.00 88 1009.3
20260509082322 21 358 9.7 24.1 0.00 0.00 0.00 87 1009.5
20260509081820 21 42 9.7 9.7 0.00 0.00 0.00 88 1008.5
20260509081317 21 160 8.0 12.9 0.00 0.00 0.00 88 1008.0
20260509080815 21 120 4.8 14.5 0.00 0.00 0.00 89 1008.2
20260509080312 20 192 3.2 17.7 0.00 0.00 0.00 89 1008.0
20260509075810 20 171 4.8 11.3 0.00 0.00 0.00 89 1008.3
20260509075307 20 190 4.8 9.7 0.00 0.00 0.00 89 1008.5
20260509074804 20 181 6.4 6.4 0.00 0.00 0.00 89 1008.9
20260509074302 20 213 4.8 11.3 0.00 0.00 0.00 89 1009.4
20260509073758 20 132 4.8 9.7 0.00 0.00 0.00 89 1009.5
20260509073254 20 169 4.8 8.0 0.00 0.00 0.00 89 1009.8
20260509072751 20 189 3.2 9.7 0.00 0.00 0.00 89 1010.1
20260509072248 20 177 3.2 11.3 0.00 0.00 0.00 89 1010.0
20260509071744 20 266 1.6 4.8 0.00 0.00 0.00 89 1010.3
20260509071242 20 89 0.0 8.0 0.00 0.00 0.00 89 1010.3
20260509070738 20 134 4.8 4.8 0.00 0.00 0.00 89 1010.9
20260509070235 20 120 1.6 4.8 0.00 0.00 0.00 89 1010.7
20260509065731 20 78 3.2 6.4 0.00 0.00 0.00 89 1010.8
20260509065228 20 104 0.0 4.8 0.00 0.00 0.00 89 1010.7
20260509064724 20 138 4.8 6.4 0.00 0.00 0.00 88 1010.6
20260509064222 20 238 1.6 8.0 0.00 0.00 0.00 88 1011.0
20260509063719 20 327 3.2 6.4 0.00 0.00 0.00 88 1011.1
20260509063215 20 197 6.4 14.5 0.00 0.00 0.00 87 1010.8
20260509062713 20 202 8.0 12.9 0.00 0.00 0.00 87 1011.2
20260509062210 20 230 11.3 19.3 0.00 0.00 0.00 87 1011.3
20260509061707 20 198 11.3 11.3 0.00 0.00 0.00 87 1011.2
20260509061204 20 213 9.7 20.9 0.00 0.00 0.00 88 1011.0
20260509060701 20 212 6.4 16.1 0.00 0.00 0.00 88 1010.8
20260509060158 20 208 3.2 11.3 0.00 0.00 0.00 89 1010.7
20260509055654 20 215 4.8 9.7 0.00 0.00 0.00 88 1010.7
20260509055149 20 257 3.2 4.8 0.00 0.00 0.00 87 1010.6
20260509054646 20 201 4.8 8.0 0.00 0.00 0.00 87 1010.7
20260509054144 20 244 0.0 6.4 0.00 0.00 0.00 87 1010.8
20260509053642 20 213 1.6 8.0 0.00 0.00 0.00 87 1010.8
20260509053138 20 217 8.0 9.7 0.00 0.00 0.00 87 1011.0
20260509052636 20 188 1.6 8.0 0.00 0.00 0.00 87 1010.8
20260509052134 20 175 6.4 8.0 0.00 0.00 0.00 86 1011.2
20260509051632 20 180 4.8 4.8 0.00 0.00 0.00 85 1011.8
20260509051128 20 153 3.2 6.4 0.00 0.00 0.00 84 1011.7
20260509050626 21 195 4.8 4.8 0.00 0.00 0.00 83 1012.0
20260509050122 21 225 4.8 6.4 0.00 0.00 0.00 83 1012.4
20260509045620 21 251 6.4 6.4 0.00 0.38 0.38 83 1012.3
20260509045116 21 248 8.0 8.0 0.00 0.38 0.38 82 1012.6
20260509044613 21 342 4.8 8.0 0.00 0.38 0.38 82 1012.9
20260509044111 21 354 6.4 11.3 0.00 0.38 0.38 81 1013.1
20260509043607 21 332 9.7 12.9 0.00 0.38 0.38 81 1013.0
20260509043103 21 329 4.8 9.7 0.00 0.38 0.38 81 1012.4
20260509042559 21 313 4.8 4.8 0.00 0.38 0.38 81 1011.8
20260509042055 21 273 1.6 6.4 0.00 0.38 0.38 81 1011.3
20260509041552 21 215 4.8 9.7 0.00 0.38 0.38 81 1011.2
20260509041050 21 184 4.8 8.0 0.00 0.38 0.38 81 1011.0
20260509040548 21 199 4.8 8.0 0.00 0.38 0.38 80 1011.0
20260509040044 21 204 6.4 6.4 0.00 0.38 0.38 80 1011.1
20260509035541 21 190 1.6 6.4 0.00 0.38 0.38 80 1011.1
20260509035038 21 141 0.0 4.8 0.00 0.38 0.38 79 1011.1
20260509034536 21 120 4.8 8.0 0.00 0.38 0.38 78 1011.1
20260509034033 21 80 12.9 12.9 0.00 0.38 0.38 79 1011.6
20260509033530 21 82 4.8 6.4 0.00 0.38 0.38 79 1010.8
20260509033027 21 187 3.2 9.7 0.00 0.38 0.38 79 1010.4
20260509032524 21 161 4.8 8.0 0.00 0.38 0.38 79 1010.5
20260509032021 21 26 0.0 6.4 0.00 0.38 0.38 79 1010.5
20260509031519 21 178 8.0 11.3 0.00 0.38 0.38 79 1010.1
20260509031016 21 191 6.4 16.1 0.00 0.38 0.38 79 1010.1
20260509030514 21 185 8.0 11.3 0.00 0.38 0.38 79 1010.7
20260509030010 21 125 3.2 6.4 0.00 0.38 0.38 78 1011.6
20260509025506 21 20 8.0 8.0 0.00 0.38 0.38 78 1012.1
20260509025002 21 24 4.8 8.0 0.00 0.38 0.38 78 1012.0
20260509024458 21 38 3.2 8.0 0.00 0.38 0.38 79 1011.9
20260509023955 21 44 6.4 8.0 0.00 0.38 0.38 79 1011.6
20260509023452 21 353 3.2 6.4 0.00 0.38 0.38 79 1011.2
20260509022949 21 40 3.2 4.8 0.00 0.38 0.38 79 1011.1
20260509022446 21 92 3.2 4.8 0.00 0.38 0.38 79 1010.8
20260509021943 21 124 0.0 6.4 0.00 0.38 0.38 79 1010.5
20260509021439 21 60 1.6 4.8 0.00 0.38 0.38 79 1010.3
20260509020938 21 124 3.2 4.8 0.00 0.38 0.38 78 1010.0
20260509020436 21 127 6.4 6.4 0.00 0.38 0.38 78 1010.0
20260509015932 21 26 0.0 8.0 0.00 0.38 0.38 78 1009.5
20260509015431 21 218 4.8 9.7 0.00 0.38 0.38 78 1009.4
20260509014927 21 137 3.2 9.7 0.00 0.38 0.38 77 1009.3
20260509014423 21 192 4.8 6.4 0.00 0.38 0.38 77 1009.5
20260509013920 21 205 4.8 11.3 0.00 0.38 0.38 76 1009.4
20260509013417 22 131 1.6 6.4 0.00 0.38 0.38 76 1009.5
20260509012912 22 201 4.8 8.0 0.00 0.38 0.38 75 1009.5
20260509012409 22 190 9.7 14.5 0.00 0.38 0.38 74 1009.3
20260509011907 22 193 8.0 9.7 0.00 0.38 0.38 74 1009.5
20260509011404 22 201 8.0 9.7 0.00 0.38 0.38 73 1009.5
20260509010902 22 203 3.2 8.0 0.00 0.38 0.38 73 1009.6
20260509010359 22 228 4.8 14.5 0.00 0.38 0.38 72 1009.5
20260509005856 22 226 0.0 4.8 0.00 0.38 0.38 72 1009.9
20260509005354 22 183 3.2 4.8 0.00 0.38 0.38 72 1009.8
20260509004849 22 61 3.2 6.4 0.00 0.38 0.38 71 1009.8
20260509004345 22 173 4.8 6.4 0.00 0.38 0.38 71 1009.7
20260509003843 23 174 6.4 6.4 0.00 0.38 0.38 71 1009.6
20260509003341 23 215 3.2 4.8 0.00 0.38 0.38 70 1009.5
20260509002838 23 197 11.3 16.1 0.00 0.38 0.38 70 1009.3
20260509002335 23 139 6.4 16.1 0.00 0.38 0.38 69 1009.3
20260509001833 23 174 4.8 12.9 0.00 0.38 0.38 68 1009.3
20260509001328 23 146 4.8 11.3 0.00 0.38 0.38 68 1009.2
20260509000826 23 182 4.8 12.9 0.00 0.38 0.38 68 1009.2
20260509000325 23 148 4.8 11.3 0.00 0.38 0.38 68 1009.2
20260508235820 23 125 4.8 12.9 0.00 0.38 0.38 68 1009.2
20260508235317 23 218 8.0 14.5 0.00 0.38 0.38 68 1009.1
20260508234814 24 187 8.0 17.7 0.00 0.38 0.38 67 1009.2
20260508234310 24 215 9.7 11.3 0.00 0.38 0.38 66 1009.4
20260508233809 24 142 8.0 14.5 0.00 0.38 0.38 65 1009.3
20260508233308 25 134 3.2 9.7 0.00 0.38 0.38 66 1009.4
20260508232804 24 211 4.8 17.7 0.00 0.38 0.38 65 1009.6
20260508232300 25 183 6.4 17.7 0.00 0.38 0.38 63 1009.6
20260508231759 24 233 3.2 11.3 0.00 0.38 0.38 65 1009.6
20260508231255 24 208 8.0 12.9 0.00 0.38 0.38 64 1009.6
20260508230752 25 201 14.5 17.7 0.00 0.38 0.38 64 1009.5
20260508230248 25 183 8.0 11.3 0.00 0.38 0.38 65 1009.6
20260508225746 25 196 8.0 12.9 0.00 0.38 0.38 64 1009.7
20260508225242 25 185 4.8 17.7 0.00 0.38 0.38 65 1009.6
20260508224740 25 219 6.4 8.0 0.00 0.38 0.38 64 1009.7
20260508224237 25 132 8.0 16.1 0.00 0.38 0.38 64 1009.5
20260508223735 25 206 9.7 9.7 0.00 0.38 0.38 65 1009.7
20260508223232 25 155 4.8 14.5 0.00 0.38 0.38 65 1009.6
20260508222729 25 204 9.7 14.5 0.00 0.38 0.38 64 1009.7
20260508222227 25 154 0.0 11.3 0.00 0.38 0.38 63 1009.8
20260508221723 25 160 3.2 12.9 0.00 0.38 0.38 63 1009.8
20260508221219 25 140 4.8 12.9 0.00 0.38 0.38 62 1009.8
20260508220715 25 181 6.4 9.7 0.00 0.38 0.38 62 1009.9
20260508220212 25 141 4.8 17.7 0.00 0.38 0.38 63 1009.6
20260508215708 25 182 9.7 17.7 0.00 0.38 0.38 62 1009.9
20260508215205 26 149 1.6 9.7 0.00 0.38 0.38 60 1009.8
20260508214702 25 182 1.6 12.9 0.00 0.38 0.38 63 1009.8
20260508214200 25 224 6.4 11.3 0.00 0.38 0.38 62 1009.9
20260508213656 25 120 6.4 14.5 0.00 0.38 0.38 61 1009.9
20260508213152 25 94 1.6 11.3 0.00 0.38 0.38 62 1009.8
20260508212649 25 66 4.8 14.5 0.00 0.38 0.38 63 1009.8
20260508212146 25 171 1.6 16.1 0.00 0.38 0.38 62 1009.9
20260508211640 26 11 1.6 8.0 0.00 0.38 0.38 62 1009.7
20260508211137 25 320 3.2 16.1 0.00 0.38 0.38 65 1009.7
20260508210634 26 94 8.0 9.7 0.00 0.38 0.38 61 1009.6
20260508210132 25 120 6.4 8.0 0.00 0.38 0.38 63 1010.1
20260508205629 25 199 3.2 14.5 0.00 0.38 0.38 62 1010.4
20260508205125 25 117 4.8 17.7 0.00 0.38 0.38 63 1010.5
20260508204621 25 130 9.7 20.9 0.00 0.38 0.38 63 1010.7
20260508204117 25 187 9.7 20.9 0.00 0.38 0.38 64 1010.8
20260508203613 25 192 14.5 17.7 0.00 0.38 0.38 63 1010.9
20260508203110 25 237 6.4 19.3 0.00 0.38 0.38 63 1011.1
20260508202606 26 225 6.4 14.5 0.00 0.38 0.38 63 1011.2
20260508202104 25 192 3.2 11.3 0.00 0.38 0.38 63 1011.3
20260508201600 25 202 8.0 22.5 0.00 0.38 0.38 63 1011.5
20260508201057 25 177 9.7 19.3 0.00 0.38 0.38 61 1011.1
20260508200554 26 198 11.3 17.7 0.00 0.38 0.38 60 1011.2
20260508200049 26 149 4.8 14.5 0.00 0.38 0.38 60 1011.5
20260508195546 25 195 6.4 11.3 0.00 0.38 0.38 62 1011.6
20260508195042 24 187 8.0 17.7 0.00 0.38 0.38 64 1011.7
20260508194540 24 181 8.0 12.9 0.00 0.38 0.38 62 1011.9
20260508194037 25 177 4.8 17.7 0.00 0.38 0.38 62 1011.8
20260508193533 25 210 4.8 11.3 0.00 0.38 0.38 62 1011.7
20260508193030 25 196 8.0 11.3 0.00 0.38 0.38 61 1011.7
20260508192527 25 196 3.2 14.5 0.00 0.38 0.38 59 1011.9
20260508192024 25 87 6.4 8.0 0.00 0.38 0.38 62 1011.9
20260508191521 25 218 8.0 16.1 0.00 0.38 0.38 60 1011.9
20260508191017 25 194 8.0 11.3 0.00 0.38 0.38 61 1011.9
20260508190515 25 191 6.4 14.5 0.00 0.38 0.38 63 1011.9
20260508190011 25 204 9.7 12.9 0.00 0.38 0.38 61 1012.0
20260508185508 25 197 8.0 11.3 0.00 0.38 0.38 62 1012.0
20260508185006 24 187 4.8 9.7 0.00 0.38 0.38 62 1012.0
20260508184504 25 93 8.0 11.3 0.00 0.38 0.38 63 1011.9
20260508183959 24 155 8.0 8.0 0.00 0.38 0.38 63 1012.3
20260508183456 23 233 3.2 17.7 0.00 0.38 0.38 64 1012.4
20260508182951 23 180 8.0 11.3 0.00 0.38 0.38 62 1012.4
20260508182449 23 198 8.0 14.5 0.00 0.38 0.38 64 1012.6
20260508181944 23 329 1.6 4.8 0.00 0.38 0.38 65 1012.6
20260508181441 23 215 6.4 14.5 0.00 0.38 0.38 63 1012.7
20260508180939 23 238 4.8 12.9 0.00 0.38 0.38 63 1012.9
20260508180435 23 205 6.4 22.5 0.00 0.38 0.38 65 1012.9
20260508175931 23 113 4.8 8.0 0.00 0.38 0.38 63 1013.0
20260508175428 23 213 4.8 9.7 0.00 0.38 0.38 61 1013.1
20260508174926 23 122 8.0 8.0 0.00 0.38 0.38 63 1013.2
20260508174423 23 180 4.8 11.3 0.00 0.38 0.38 63 1013.3
20260508173919 22 202 12.9 12.9 0.00 0.38 0.38 61 1013.2
20260508173417 22 129 4.8 9.7 0.00 0.38 0.38 65 1013.3
20260508172912 22 100 9.7 12.9 0.00 0.38 0.38 63 1013.4
20260508172410 22 259 3.2 8.0 0.00 0.38 0.38 67 1013.6
20260508171906 22 124 9.7 11.3 0.00 0.38 0.38 65 1013.6
20260508171403 22 113 4.8 14.5 0.00 0.38 0.38 61 1013.6
20260508170900 22 197 9.7 9.7 0.00 0.38 0.38 64 1013.8
20260508170357 22 134 11.3 12.9 0.00 0.38 0.38 63 1013.9
20260508165853 22 50 4.8 8.0 0.00 0.38 0.38 65 1014.2
20260508165351 22 106 4.8 9.7 0.00 0.38 0.38 63 1014.4
20260508164847 21 160 0.0 11.3 0.00 0.38 0.38 69 1014.5
20260508164344 21 143 8.0 14.5 0.00 0.38 0.38 66 1014.3
20260508163842 20 211 6.4 8.0 0.00 0.38 0.38 68 1014.5
20260508163339 20 125 4.8 14.5 0.00 0.38 0.38 67 1014.7
20260508162835 20 80 6.4 12.9 0.00 0.38 0.38 68 1014.7
20260508162332 20 191 3.2 14.5 0.00 0.38 0.38 68 1014.7
20260508161829 20 96 4.8 12.9 0.00 0.00 0.00 70 1015.0
20260508161326 20 210 8.0 20.9 0.00 0.38 0.38 68 1014.8
20260508160824 20 192 6.4 11.3 0.00 0.38 0.38 69 1014.7
20260508160322 20 139 6.4 9.7 0.00 0.38 0.38 73 1014.8
20260508155817 19 142 3.2 17.7 0.00 0.38 0.38 73 1014.9
20260508155314 19 189 3.2 8.0 0.00 0.38 0.38 73 1015.0
20260508154811 20 139 1.6 8.0 0.00 0.38 0.38 73 1014.8
20260508154309 19 144 4.8 8.0 0.00 0.38 0.38 75 1015.1
20260508153805 18 172 0.0 6.4 0.00 0.38 0.38 76 1015.0
20260508153303 18 183 6.4 8.0 0.00 0.38 0.38 76 1015.0
20260508152759 18 183 6.4 6.4 0.00 0.38 0.38 75 1015.1
20260508152256 18 180 9.7 9.7 0.00 0.38 0.38 75 1015.4
20260508151752 18 206 3.2 8.0 0.00 0.38 0.38 76 1015.3
20260508151249 18 189 4.8 6.4 0.00 0.38 0.38 78 1015.5
20260508150745 18 180 4.8 6.4 0.00 0.38 0.38 77 1015.9
20260508150242 18 209 3.2 8.0 0.00 0.38 0.38 76 1015.7
20260508145738 18 176 9.7 14.5 0.00 0.38 0.38 76 1015.5
20260508145234 17 107 3.2 11.3 0.00 0.38 0.38 78 1015.5
20260508144731 17 182 4.8 6.4 0.00 0.38 0.38 78 1015.4
20260508144230 17 114 3.2 9.7 0.00 0.38 0.38 79 1015.3
20260508143727 17 158 6.4 9.7 0.00 0.38 0.38 80 1015.4
20260508143223 17 219 4.8 6.4 0.00 0.38 0.38 81 1015.4
20260508142719 17 144 3.2 9.7 0.00 0.38 0.38 83 1015.5
20260508142217 17 205 4.8 8.0 0.00 0.38 0.38 83 1015.8
20260508141713 17 156 4.8 8.0 0.00 0.38 0.38 84 1015.7
20260508141211 17 184 4.8 8.0 0.00 0.38 0.38 86 1015.6
20260508140708 17 106 0.0 6.4 0.00 0.38 0.38 88 1015.6
20260508140204 17 102 3.2 6.4 0.00 0.38 0.38 87 1015.6
20260508135701 17 105 1.6 6.4 0.00 0.38 0.38 88 1016.0
20260508135156 17 71 3.2 4.8 0.00 0.38 0.38 88 1015.7
20260508134653 16 80 6.4 8.0 0.00 0.38 0.38 89 1015.6
20260508134150 16 135 0.0 4.8 0.00 0.38 0.38 89 1015.8
20260508133647 16 65 1.6 3.2 0.00 0.38 0.38 90 1016.0
20260508133144 16 161 1.6 3.2 0.00 0.38 0.38 90 1015.9
20260508132642 16 49 0.0 3.2 0.00 0.38 0.38 91 1016.0
20260508132139 16 149 1.6 3.2 0.00 0.38 0.38 91 1015.8
20260508131634 16 135 0.0 1.6 0.00 0.38 0.38 91 1016.0
20260508131131 15 107 6.4 8.0 0.00 0.38 0.38 92 1015.8
20260508130628 15 94 6.4 6.4 0.00 0.38 0.38 92 1015.8
20260508130125 15 208 3.2 8.0 0.00 0.38 0.38 92 1015.8
20260508125620 15 95 0.0 4.8 0.00 0.38 0.38 92 1015.6
20260508125118 15 98 3.2 6.4 0.00 0.38 0.38 92 1015.4
20260508124616 15 68 4.8 4.8 0.00 0.38 0.38 92 1015.8
20260508124112 15 60 0.0 4.8 0.00 0.38 0.38 92 1016.0
20260508123611 15 175 3.2 4.8 0.00 0.38 0.38 93 1015.6
20260508123108 15 103 1.6 4.8 0.00 0.38 0.38 93 1015.4
20260508122603 15 41 3.2 6.4 0.00 0.38 0.38 93 1015.3
20260508122101 15 116 3.2 4.8 0.00 0.38 0.38 93 1016.0
20260508121559 15 113 8.0 8.0 0.00 0.38 0.38 93 1016.0
20260508121057 15 92 3.2 6.4 0.00 0.38 0.38 93 1015.6
20260508120554 15 98 3.2 4.8 0.00 0.38 0.38 93 1016.0
20260508120053 15 201 3.2 3.2 0.00 0.38 0.38 93 1016.0
20260508115549 15 59 3.2 4.8 0.00 0.38 0.38 93 1016.0
20260508115046 15 259 3.2 8.0 0.00 0.38 0.38 93 1016.0
20260508114543 15 114 3.2 6.4 0.00 0.38 0.38 93 1015.7
20260508114039 15 106 4.8 6.4 0.05 0.38 0.38 93 1015.4
20260508113537 15 196 3.2 4.8 0.05 0.38 0.38 92 1016.0
20260508113035 15 155 4.8 4.8 1.02 0.36 0.36 92 1015.6